Weather History for Whiting Fld NAS, FL

Change the Weather History Date:

Wednesday, January 9, 2013

  Actual Average Record
Temperature  
Mean Temperature 65 °F -  
Max Temperature 70 °F 59 °F 78 °F (2008)
Min Temperature 60 °F 41 °F 28 °F (2001)
Growing Degree Days 15 (Base 50)    
Moisture  
Dew Point 60 °F    
Average Humidity 82    
Maximum Humidity 94    
Minimum Humidity 72    
Precipitation  
Precipitation 0.00 in - - ()
Sea Level Pressure  
Sea Level Pressure 30.21 in    
Wind  
Wind Speed 7 mph (East)    
Max Wind Speed 12 mph    
Max Gust Speed -    
Visibility 4 miles    
Events Rain    
Averages and records for this station are not official NWS values.
T = Trace of Precipitation, MM = Missing Value Source: NWS Daily Summary

Daily Weather History Graph

Daily Weather History Graph

Search for Another Location

Airport:

Trip Planner

Search our weather history database for the weather conditions in past years. The results will help you decide how hot, cold, wet, or windy it might be!

Date:

Astronomy

Jan. 09, 2013 Rise Set
Actual Time 6:46 AM CST 5:04 PM CST
Civil Twilight 6:20 AM CST 5:30 PM CST
Nautical Twilight 5:50 AM CST 6:00 PM CST
Astronomical Twilight 5:21 AM CST 6:29 PM CST
Moon 4:25 AM CST (1/9) 3:05 PM CST (1/9)
Length of Visible Light 11h 10m
Length of Day
10h 17m
Waning Crescent, 6% of the Moon is Illuminated
Jan 9
Waning Crescent
Jan 11
New
Jan 18
First Quarter
Jan 26
Full
Feb 3
Last Quarter

Hourly Weather History & Observations

Time (CST) Temp. Dew Point Humidity Pressure Visibility Wind Dir Wind Speed Gust Speed Precip Events Conditions
12:14 AM 62.6 °F 53.6 °F 72% 30.20 in 10.0 mi East 8.1 mph - N/A   Scattered Clouds
12:43 AM 62.6 °F 53.6 °F 72% 30.20 in 10.0 mi ENE 4.6 mph - N/A   Mostly Cloudy
12:54 AM 62.6 °F 53.6 °F 72% 30.20 in 10.0 mi ENE 6.9 mph - N/A   Mostly Cloudy
12:56 AM 62.1 °F 54.0 °F 75% 30.16 in 10.0 mi ENE 6.9 mph - N/A   Mostly Cloudy
1:56 AM 61.0 °F 54.0 °F 78% 30.16 in 9.0 mi ENE 5.8 mph - N/A   Mostly Cloudy
2:25 AM 60.8 °F 53.6 °F 77% 30.20 in 9.0 mi ENE 6.9 mph - N/A   Mostly Cloudy
2:49 AM 62.6 °F 53.6 °F 72% 30.21 in 9.0 mi ENE 5.8 mph - N/A   Overcast
2:56 AM 62.1 °F 54.0 °F 75% 30.17 in 9.0 mi ENE 5.8 mph - N/A   Overcast
3:56 AM 62.1 °F 55.0 °F 78% 30.17 in 9.0 mi NE 6.9 mph - N/A   Overcast
4:56 AM 62.1 °F 55.0 °F 78% 30.18 in 8.0 mi ENE 5.8 mph - 0.00 in Rain Light Rain
5:56 AM 62.1 °F 55.9 °F 80% 30.19 in 7.0 mi ENE 6.9 mph - 0.00 in   Overcast
6:56 AM 62.1 °F 57.9 °F 86% 30.20 in 6.0 mi ENE 8.1 mph - N/A   Overcast
7:47 AM 62.6 °F 59.0 °F 88% 30.26 in 3.0 mi East 6.9 mph - N/A   Overcast
7:56 AM 63.0 °F 59.0 °F 87% 30.22 in 2.5 mi East 8.1 mph - N/A   Overcast
8:20 AM 62.6 °F 59.0 °F 88% 30.27 in 2.0 mi ENE 6.9 mph - N/A   Overcast
8:38 AM 62.6 °F 60.8 °F 94% 30.27 in 1.5 mi ENE 6.9 mph - N/A   Overcast
8:56 AM 64.0 °F 60.1 °F 87% 30.24 in 1.2 mi East 6.9 mph - N/A   Overcast
9:56 AM 64.9 °F 62.1 °F 90% 30.25 in 2.0 mi East 5.8 mph - N/A   Overcast
10:13 AM 66.2 °F 62.6 °F 88% 30.27 in 3.0 mi East 8.1 mph - N/A   Overcast
10:56 AM 66.9 °F 61.0 °F 81% 30.21 in 4.0 mi East 11.5 mph - N/A   Overcast
11:56 AM 68.0 °F 61.0 °F 78% 30.19 in 4.0 mi East 8.1 mph - N/A   Haze
12:44 PM 69.8 °F 62.6 °F 78% 30.23 in 6.0 mi ESE 8.1 mph - N/A   Haze
12:56 PM 70.0 °F 62.1 °F 76% 30.19 in 3.0 mi ESE 9.2 mph - N/A   Smoke
1:56 PM 70.0 °F 63.0 °F 78% 30.17 in 3.0 mi East 8.1 mph - N/A   Smoke
2:34 PM 69.8 °F 62.6 °F 78% 30.20 in 1.0 mi East 6.9 mph - N/A   Drizzle
2:56 PM 70.0 °F 64.0 °F 81% 30.16 in 1.0 mi ESE 9.2 mph - N/A   Overcast
3:40 PM 69.8 °F 64.4 °F 83% 30.21 in 1.0 mi East 5.8 mph - N/A   Overcast
3:56 PM 69.1 °F 64.0 °F 84% 30.17 in 0.8 mi East 6.9 mph - N/A   Overcast
4:56 PM 68.0 °F 63.0 °F 84% 30.19 in 0.8 mi East 5.8 mph - 0.00 in   Light Drizzle
5:56 PM 68.0 °F 64.0 °F 87% 30.20 in 0.8 mi ENE 8.1 mph - 0.00 in   Light Drizzle
6:56 PM 68.0 °F 64.0 °F 87% 30.22 in 2.0 mi ENE 6.9 mph - 0.00 in   Light Drizzle
7:56 PM 68.0 °F 63.0 °F 84% 30.22 in 2.0 mi East 6.9 mph - 0.00 in   Light Drizzle
8:56 PM 68.0 °F 63.0 °F 84% 30.23 in 2.0 mi East 5.8 mph - 0.00 in   Overcast
9:56 PM 66.9 °F 63.0 °F 87% 30.24 in 2.0 mi East 3.5 mph - N/A   Overcast
10:56 PM 66.9 °F 63.0 °F 87% 30.25 in 3.0 mi East 3.5 mph - N/A   Overcast
11:56 PM 66.9 °F 63.0 °F 87% 30.23 in 4.0 mi ENE 5.8 mph - N/A   Overcast